TimeHST,TemperatureF,Dew PointF,Humidity,Sea Level PressureIn,VisibilityMPH,Wind Direction,Wind SpeedMPH,Gust SpeedMPH,PrecipitationIn,Events,Conditions,WindDirDegrees,DateUTC
12:54 AM,73.0,69.1,87,30.09,10.0,NW,5.8,-,N/A,,Scattered Clouds,310,2012-12-05 10:54:00
1:54 AM,73.0,69.1,87,30.07,10.0,WNW,4.6,-,N/A,,Clear,300,2012-12-05 11:54:00
2:54 AM,72.0,69.1,91,30.06,9.0,Calm,Calm,-,0.00,,Mostly Cloudy,0,2012-12-05 12:54:00
4:52 AM,73.4,69.8,88,30.06,9.0,WNW,4.6,-,N/A,,Mostly Cloudy,300,2012-12-05 14:52:00
4:54 AM,73.0,70.0,90,30.07,9.0,NW,3.5,-,N/A,,Mostly Cloudy,310,2012-12-05 14:54:00
5:13 AM,71.6,69.8,94,30.06,9.0,NW,4.6,-,N/A,,Scattered Clouds,320,2012-12-05 15:13:00
5:54 AM,71.1,68.0,90,30.09,10.0,NW,4.6,-,N/A,,Scattered Clouds,320,2012-12-05 15:54:00
6:54 AM,72.0,68.0,87,30.10,10.0,NNW,4.6,-,N/A,,Mostly Cloudy,330,2012-12-05 16:54:00
7:54 AM,73.0,69.1,87,30.11,10.0,Calm,Calm,-,N/A,,Scattered Clouds,0,2012-12-05 17:54:00
8:54 AM,77.0,70.0,79,30.12,10.0,Calm,Calm,-,N/A,,Clear,0,2012-12-05 18:54:00
9:54 AM,78.1,69.1,74,30.11,10.0,NE,4.6,-,N/A,,Clear,40,2012-12-05 19:54:00
10:54 AM,79.0,69.1,72,30.11,10.0,SW,4.6,-,N/A,,Scattered Clouds,220,2012-12-05 20:54:00
11:07 AM,80.6,68.0,65,30.09,10.0,North,6.9,-,N/A,,Mostly Cloudy,10,2012-12-05 21:07:00
11:17 AM,78.8,69.8,74,30.09,10.0,North,9.2,-,N/A,,Scattered Clouds,10,2012-12-05 21:17:00
11:54 AM,78.1,70.0,76,30.10,10.0,North,8.1,-,N/A,,Scattered Clouds,350,2012-12-05 21:54:00
12:03 PM,78.8,69.8,74,30.08,10.0,North,8.1,-,N/A,,Scattered Clouds,350,2012-12-05 22:03:00
12:54 PM,80.1,69.1,69,30.05,10.0,ENE,8.1,-,N/A,,Scattered Clouds,60,2012-12-05 22:54:00
1:54 PM,78.1,69.1,74,30.03,10.0,SSE,6.9,-,N/A,,Mostly Cloudy,150,2012-12-05 23:54:00
2:15 PM,78.8,68.0,69,30.02,10.0,SE,6.9,-,N/A,,Mostly Cloudy,130,2012-12-06 00:15:00
2:45 PM,78.8,69.8,74,30.02,10.0,SSE,5.8,-,N/A,,Mostly Cloudy,160,2012-12-06 00:45:00
2:54 PM,77.0,69.1,76,30.02,10.0,SSE,4.6,-,N/A,,Scattered Clouds,160,2012-12-06 00:54:00
3:54 PM,79.0,69.1,72,30.02,10.0,North,8.1,-,N/A,,Scattered Clouds,350,2012-12-06 01:54:00
4:54 PM,77.0,69.1,76,30.05,10.0,North,3.5,-,N/A,,Scattered Clouds,350,2012-12-06 02:54:00
5:54 PM,75.9,69.1,79,30.04,10.0,East,3.5,-,N/A,,Clear,80,2012-12-06 03:54:00
6:54 PM,75.0,69.1,82,30.05,10.0,East,3.5,-,N/A,,Clear,80,2012-12-06 04:54:00
7:54 PM,75.0,66.0,73,30.05,10.0,NNE,3.5,-,N/A,,Clear,20,2012-12-06 05:54:00
8:54 PM,73.0,64.9,76,30.05,10.0,ESE,4.6,-,N/A,,Clear,120,2012-12-06 06:54:00
9:54 PM,73.9,66.0,76,30.04,10.0,NNW,9.2,-,N/A,,Clear,330,2012-12-06 07:54:00
10:54 PM,72.0,66.0,81,30.03,10.0,SW,4.6,-,N/A,,Clear,230,2012-12-06 08:54:00
11:54 PM,72.0,64.9,78,30.02,10.0,NW,8.1,-,N/A,,Clear,310,2012-12-06 09:54:00